This demonstration page uses our WeatherBlox Daily Observations layout. Learn more.

Left ArrowRight Arrow

36.17497, -115.13722

Hourly Observations for October 3, 2019

Temp ( °F °C ) Dew Point ( °F °C ) Humidity (%) Winds ( mph kmh ) Pressure ( in mb ) Visibility ( mi km ) Precip ( " mm )
12:53 am 00:53 Clear 59 15 18 -7.8 20 20 NW 7 11 29.99 1016 10 16.0934 N/A
1:53 am 01:53 Clear 58 14.4 17 -8.3 20 20 WNW 3 6 30 1016 10 16.0934 N/A
2:53 am 02:53 Clear 58 14.4 18 -7.8 21 21 WNW 6 9 29.98 1015 10 16.0934 N/A
3:53 am 03:53 Clear 54 12.2 18 -7.8 24 24 WNW 5 7 29.98 1015 10 16.0934 N/A
4:53 am 04:53 Clear 54 12.2 19 -7.2 25 25 WNW 5 7 29.99 1016 10 16.0934 N/A
5:53 am 05:53 Clear 53 11.7 18 -7.8 25 25 WNW 7 11 30 1016 10 16.0934 N/A
6:53 am 06:53 Sunny 53 11.7 21 -6.1 28 28 N N/A 30.01 1016 10 16.0934 N/A
7:53 am 07:53 Sunny 57 13.9 20 -6.7 24 24 NW 3 6 30.02 1017 10 16.0934 N/A
8:53 am 08:53 Sunny 63 17.2 20 -6.7 19 19 N N/A 30.03 1017 10 16.0934 N/A
9:53 am 09:53 Sunny 67 19.4 15 -9.4 13 13 N N/A 30.03 1017 10 16.0934 N/A
10:53 am 10:53 Sunny 71 21.7 12 -11.1 10 10 E 9 15 30.01 1016 10 16.0934 N/A
11:53 am 11:53 Sunny 74 23.3 14 -10 10 10 ESE 8 13 29.99 1016 10 16.0934 N/A
12:53 pm 12:53 Sunny 77 25 14 -10 9 9 ESE 6 9 29.95 1014 10 16.0934 N/A
1:53 pm 13:53 Sunny 81 27.2 17 -8.3 9 9 undefined N/A 29.9 1013 10 16.0934 N/A
2:53 pm 14:53 Sunny 83 28.3 18 -7.8 9 9 ESE 12 19 29.88 1012 10 16.0934 N/A
3:53 pm 15:53 Sunny 84 28.9 21 -6.1 10 10 E 6 9 29.86 1011 10 16.0934 N/A
4:53 pm 16:53 Sunny 84 28.9 24 -4.4 11 11 E 8 13 29.84 1011 10 16.0934 N/A
5:53 pm 17:53 Sunny 83 28.3 26 -3.3 12 12 E 7 11 29.83 1010 10 16.0934 N/A
6:53 pm 18:53 Clear 81 27.2 29 -1.7 15 15 N N/A 29.83 1010 10 16.0934 N/A
7:53 pm 19:53 Clear 77 25 30 -1.1 18 18 SW 5 7 29.85 1011 10 16.0934 N/A
8:53 pm 20:53 Clear 77 25 21 -6.1 12 12 S 6 9 29.85 1011 10 16.0934 N/A
9:53 pm 21:53 Clear 75 23.9 20 -6.7 12 12 SW 8 13 29.86 1011 10 16.0934 N/A
10:53 pm 22:53 Clear 72 22.2 20 -6.7 14 14 SSW 8 13 29.85 1011 10 16.0934 N/A
11:53 pm 23:53 Clear 71 21.7 21 -6.1 15 15 S 10 17 29.85 1011 10 16.0934 N/A

Powered by AerisWeather